Regional Weather Roundup
Issued by NWS Cleveland, OH

Home | Current Version | Previous Version | Text Only | Print | Product List | Glossary Off
Versions: 1 2 3 4 5 6 7 8 9 10 11 12 13 14 15 16 17 18 19 20 21 22 23 24 25 26 27 28 29 30 31 32 33 34 35 36 37 38 39 40 41 42 43 44 45 46 47 48 49 50

000
ASUS41 KCLE 042110
RWRCLE
OHIO REGIONAL WEATHER ROUNDUP
NATIONAL WEATHER SERVICE WILMINGTON, OH
400 PM EST SUN DEC 04 2016

NOTE: "FAIR" INDICATES FEW OR NO CLOUDS BELOW 12,000 FEET WITH NO
SIGNIFICANT WEATHER AND/OR OBSTRUCTIONS TO VISIBILITY.

OHZ001>008-015>018-024>027-034-035-043-044-042200-
   NORTHWEST OHIO

CITY           SKY/WX    TMP DP  RH WIND       PRES   REMARKS
DEFIANCE       CLOUDY    40  30  67 E7        29.99F
FINDLAY        CLOUDY    41  28  60 SE8       29.97F
TOLEDO EXPRESS CLOUDY    38  29  70 E9        30.00F
TOLEDO EXEC    CLOUDY    39  30  70 E6        30.02F
LIMA           LGT SNOW  36  32  85 E8        29.95F FOG
$$

OHZ009>014-019>023-028>033-038-089-042200-
   NORTHEAST OHIO

CITY           SKY/WX    TMP DP  RH WIND       PRES   REMARKS
CLE-HOPKINS    CLOUDY    41  26  55 SE13      30.05F
CLE-LAKEFRONT  CLOUDY    41  27  57 SE15      30.02F
CUY CO. ARPT   CLOUDY    41  30  65 SE13      30.04F
LORAIN-ELYRIA  CLOUDY    39  26  59 SE10      30.01F
ASHTABULA      FAIR      40  30  67 SE9       30.08F
AKRON-CANTON   CLOUDY    39  27  62 E14       30.02F
WOOSTER        CLOUDY    39  27  62 SE13      30.01F
MANSFIELD      CLOUDY    39  28  64 SE13      29.98F
YOUNGSTOWN     CLOUDY    39  29  67 SE10      30.05F
$$

OHZ042-051>053-060>062-070>072-077>081-042200-
  SOUTHWEST OHIO

CITY           SKY/WX    TMP DP  RH WIND       PRES   REMARKS
CINC-COVINGTON LGT RAIN  42  35  76 SE10      29.91F
CINC-LUNKEN    CLOUDY    45  33  63 CALM      29.95F
HAMILTON       LGT RAIN  42  33  70 SE6       29.94F
DAYTON         LGT RAIN  39  31  72 E14       29.93F
WRIGHT-PAT AFB CLOUDY    41  31  67 E10       29.93F
DAYTON GENERAL LGT RAIN  40  30  67 SE10      29.92F
WILMINGTON     CLOUDY    40  31  70 E8        29.93F
$$

OHZ036-037-039>041-045>050-054>059-063>069-073>076-082>088-042200-
  CENTRAL AND SOUTHEAST OHIO

CITY           SKY/WX    TMP DP  RH WIND       PRES   REMARKS
COLUMBUS       CLOUDY    41  29  62 E13       29.97F
OSU AIRPORT    CLOUDY    41  29  62 E12       29.95F
BOLTON FIELD   CLOUDY    41  28  60 E9        29.97F
RICKENBACK AFB CLOUDY    41  29  62 E7        29.95F
NEWARK         CLOUDY    41  26  55 E10       29.97F
MARION         CLOUDY    40  28  62 SE10      29.98F
LANCASTER      CLOUDY    42  29  59 E10       29.98F
ZANESVILLE     CLOUDY    42  27  55 E7        29.99F
NEW PHILLY     MOCLDY    41  28  60 SE10      30.03F
$$




USA.gov is the U.S. government's official web portal to all federal, state and local government web resources and services.